Regional Weather Roundup
Issued by NWS

Home | Current Version | Previous Version | Graphics & Text | Print | Product List | Glossary On
Versions: 1 2 3 4 5 6 7 8 9 10 11 12 13 14 15 16 17 18 19 20 21 22 23 24 25 26 27 28 29 30 31 32 33 34 35 36 37 38 39 40 41 42 43 44 45 46 47 48 49 50
000
ASUS45 KTFX 271304
RWRMT
MONTANA HOURLY WEATHER ROUNDUP
NATIONAL WEATHER SERVICE GREAT FALLS MT
604 AM MST SAT DEC 27 2014

NOTE: "FAIR" INDICATES FEW OR NO CLOUDS BELOW 12000 FEET WITH NO
SIGNIFICANT WEATHER AND/OR OBSTRUCTIONS TO VISIBILITY.

* THESE STATIONS ARE NOT UNDER NWS QUALITY CONTROL. THEY DO NOT
   REPORT WEATHER SUCH AS PRECIPITATION OR FOG.

MTZ001>007-043-271400-
WEST OF THE DIVIDE
CITY           SKY/WX    TMP DP  RH WIND       PRES   REMARKS
KALISPELL      LGT SNOW  21  21 100 S3        30.15S VSB 3
MISSOULA       CLOUDY    25  18  75 E7        30.20F WCI  17
BUTTE          CLOUDY     1  -2  87 CALM      30.11S
MULLAN PASS    LGT SNOW  19  16  88 CALM      30.04R VSB 3
* ESSEX        N/A       21  19  92 N/A        N/A
* LINCOLN      N/A       21  15  78 SW4G12     N/A
* LOOKOUT PASS N/A       22  20  92 N2         N/A
* POLSON       N/A       23  22  96 N/A        N/A
* RONAN APT    CLOUDY    27  21  78 N/A        N/A
* SEELEY LAKE  N/A       13  10  88 N/A        N/A
* THOMP F APT  CLOUDY     2  -3  79 NE3        N/A
$$

MTZ008-052>055-271400-
SOUTHWEST MONTANA
CITY           SKY/WX    TMP DP  RH WIND       PRES   REMARKS
BOZEMAN        LGT SNOW   1  -2  87 CALM      30.16R
DILLON         CLOUDY    18   7  62 S18       30.11S WCI   2
* W YELLOWSTON PTCLDY    -3  -8  79 N/A        N/A
* THREE FORKS  MOCLDY     3   3 100 N/A        N/A
* BOULDER HILL N/A       16   5  62 S7         N/A   WCI   6
* MONIDA PASS  N/A        1  -2  87 SE11       N/A   WCI -15
* RAYNOLDS PAS N/A        5 -10  49 S11        N/A   WCI -10
* WHITEHALL    N/A       17   7  65 SW7G17     N/A   WCI   7
* WISE RIVER   N/A       10   5  80 SW2        N/A
$$

MTZ009>010-012-014-046-048-049-054-271400-
EAST SLOPES AND CENTRAL MONTANA
CITY           SKY/WX    TMP DP  RH WIND       PRES   REMARKS
CUT BANK       CLOUDY    25  16  69 W17       29.96S WCI  12
GREAT FALLS    CLOUDY    21  16  81 SW13      30.02S WCI   8
HELENA         CLOUDY    27  14  58 W12       30.11F WCI  16
* EAST GLACIER N/A       22  14  71 W18G29     N/A   WCI   8
* MONARCH      N/A       18   6  59 SW14G20    N/A   WCI   4
* PENDROY      N/A       24  11  57 NW11       N/A   WCI  13
* ROGERS PASS  N/A       17  12  81 E10G19     N/A   WCI   5
* SWEET GRASS  N/A       22  13  68 W13G18     N/A   WCI  10
$$

MTZ011-013-016-021-035-040-045-047-050-051-271400-
NORTH CENTRAL MONTANA
CITY           SKY/WX    TMP DP  RH WIND       PRES   REMARKS
HAVRE          PTCLDY    16  10  77 W12       30.03S WCI   3
LEWISTOWN      CLOUDY    19   9  65 SW12      30.00R WCI   6
* N BAR RANCH  MOCLDY     9   1  70 CALM      29.99S
* CHESTER      N/A       10   6  84 N/A        N/A
* DENTON       N/A       18  12  77 SW9        N/A   WCI   7
* GEYSER       N/A       22  10  60 SW17G24    N/A   WCI   8
* JUDITH GAP   N/A       14   7  73 W2         N/A
* LOMA         N/A       14  10  84 W3         N/A
$$

MTZ017>020-022>027-061-062-271400-
NORTHEAST MONTANA
CITY           SKY/WX    TMP DP  RH WIND       PRES   REMARKS
GLASGOW        MOCLDY    14  10  84 N8        30.03R WCI   3
GLENDIVE       CLEAR     16  12  84 SW9       30.05S WCI   5
JORDAN         MOCLDY    16  10  77 W7        30.03S WCI   6
SIDNEY         FAIR      10   9  96 S8        30.06F WCI  -2
WOLF POINT     PTCLDY     5   1  83 CALM      30.03F
* BEAVER HILL  N/A       11   9  92 S14        N/A   WCI  -5
* CIRCLE       N/A       16  13  88 N/A        N/A
* LINDSAY DVD  N/A       19  15  84 SW16       N/A   WCI   4
* NAVAJO       N/A       15  11  84 SW18       N/A   WCI  -2
* SACO         N/A       13  10  88 NW4        N/A
$$

MTZ028>042-056>058-271400-
SOUTHCENTRAL AND SOUTHEAST MONTANA
CITY           SKY/WX    TMP DP  RH WIND       PRES   REMARKS
BAKER          PTCLDY    16  10  77 W9        30.06S WCI   5
BILLINGS       PTCLDY    18  12  77 SW13      30.06R WCI   5
LIVINGSTON     PTCLDY    18   3  52 SW31G49   30.05S WCI  -2
MILES CITY     CLEAR     12  10  92 S6        30.06F WCI   2
* LAUREL APT   PTCLDY    16   9  74 SW9        N/A   WCI   5
* ROUNDUP APT  MOCLDY     9   1  70 S10G15     N/A   WCI  -5
* ALZADA       N/A       19  15  84 SW9        N/A   WCI   8
* HYSHAM       N/A       13  10  88 W3         N/A
* REED POINT   N/A       -1  -4  87 E3         N/A
* ROSCOE HILL  N/A       12  -4  48 SW4        N/A
$$

REGIONAL REPORTS...DAKOTAS
CITY           SKY/WX    TMP DP  RH WIND       PRES   REMARKS
WILLISTON      MOCLDY    10   9  96 S3        30.05S
DICKINSON      CLEAR     14   9  80 W10       30.02S WCI   1
BEACH          CLEAR     14  12  92 SW12      30.04F
CROSBY         CLOUDY    14  12  92 S13       30.01F
WATFORD CITY   CLEAR     10   9  96 SW8       30.03F WCI  -2
BISMARCK       CLOUDY     9   5  84 CALM      30.09F
GRAND FORKS    CLOUDY     5   1  83 S8        30.12F WCI  -8
FARGO          CLEAR      3  -2  79 S5        30.16S WCI  -7
BUFFALO SD     PTCLDY    21  16  81 W10       29.99F WCI  10
RAPID CITY     PTCLDY     7   1  76 NW3       30.11R
$$

REGIONAL REPORTS...WYOMING/IDAHO/WASHINGTON
CITY           SKY/WX    TMP DP  RH WIND       PRES   REMARKS
GILLETTE       PTCLDY    10   7  88 S8        30.05F WCI  -2
SHERIDAN       PTCLDY     3  -2  79 S3        30.04F
CODY           PTCLDY    18   0  45 W5        30.02R WCI  11
YELLOWSTONE LA PTCLDY    -4  -8  83 NW3       30.08R
SALMON         MOCLDY    19   9  65 NW3       30.25R
MULLAN PASS    LGT SNOW  19  16  88 CALM      30.04S VSB 3
SAND POINT     CLOUDY    30  30 100 S7        30.20F WCI  23
SPOKANE        CLOUDY    30  27  89 S5        30.17F WCI  25
$$

REGIONAL REPORTS...SASKATCHEWAN
CITY           SKY/WX    TMP DP  RH WIND       PRES   REMARKS
REGINA         LGT SNOW  12  10  92 W6        29.98R WCI   2

$$



USA.gov is the U.S. government's official web portal to all federal, state and local government web resources and services.